Location: BAF
(53.9483°N, 27.7497°E)
Time: 22:48:52
(UTC+02:00)

ISS - Pass Details

Date: 29 November 2020
Orbit: 418 x 419 km, 51.6° (Epoch: 16 January)

Event Time Altitude Azimuth Distance (km) Brightness Sun altitude
Rises 16:41:54 0° 241° (WSW) 2,362 2.8 -6.9°
Reaches altitude 10° 16:44:03 10° 234° (SW) 1,500 0.7 -7.2°
Maximum altitude 16:47:15 41° 163° (SSE) 625 -2.8 -7.6°
Drops below altitude 10° 16:50:26 10° 91° (E) 1,502 -1.5 -8.0°
Enters shadow 16:50:42 - 90° (E) 1,603 -1.4 -8.1°
